Torna al catalogo

ADS-01

AttivoScienzaGEO
NORAD 62006·PAYLOAD·🇦🇺 Australia

Lanciato Nov 17, 2024 da Cape Canaveral Space Force Station

Loading…

TLE

AggiornatoSource: Space-Track

Epoca: Sep 14, 2026, 15:10 UTC

1 62006U 24212A   26257.63218127 -.00000151  00000-0  00000-0 0  9995
2 62006   0.0446 270.5425 0002567 261.9750 205.0866  1.00272292  6654

Traccia ADS-01 in tempo reale con AllMySat

Download on the App Store